Time,TemperatureF,DewpointF,PressureIn,WindDirection,WindDirectionDegrees,WindSpeedMPH,WindSpeedGustMPH,Humidity,HourlyPrecipIn,Conditions,Clouds,dailyrainin,SoftwareType,DateUTC
2013-06-04 00:01:00,57.3,55.0,29.99,SE,141,0.0,2.0,92,0.00,,,0.00,WeatherCatV1.15B25,2013-06-04 05:01:00,
2013-06-04 00:06:00,57.3,55.3,29.99,SSE,148,1.0,2.0,93,0.00,,,0.00,WeatherCatV1.15B25,2013-06-04 05:06:00,
2013-06-04 00:11:00,57.4,55.7,29.99,SE,143,0.0,3.0,94,0.00,,,0.00,WeatherCatV1.15B25,2013-06-04 05:11:00,
2013-06-04 00:16:00,57.6,55.6,29.99,SSE,150,1.0,3.0,93,0.00,,,0.00,WeatherCatV1.15B25,2013-06-04 05:16:00,
2013-06-04 00:21:00,57.8,55.8,29.99,ESE,109,1.0,4.0,93,0.00,,,0.00,WeatherCatV1.15B25,2013-06-04 05:21:00,
2013-06-04 00:26:00,57.9,55.9,30.00,SE,144,0.0,2.0,93,0.00,,,0.00,WeatherCatV1.15B25,2013-06-04 05:26:00,
2013-06-04 00:31:00,58.0,56.0,30.00,SE,140,3.0,3.0,93,0.00,,,0.00,WeatherCatV1.15B25,2013-06-04 05:31:00,
2013-06-04 00:36:00,58.0,55.7,30.00,ESE,123,2.0,4.0,92,0.00,,,0.00,WeatherCatV1.15B25,2013-06-04 05:36:00,
2013-06-04 00:41:00,58.1,55.8,30.00,SE,144,0.0,1.0,92,0.00,,,0.00,WeatherCatV1.15B25,2013-06-04 05:41:00,
2013-06-04 00:46:00,58.1,55.8,30.00,SSE,150,1.0,1.0,92,0.00,,,0.00,WeatherCatV1.15B25,2013-06-04 05:46:00,
2013-06-04 00:51:00,58.2,55.9,30.00,South,169,0.0,2.0,92,0.00,,,0.00,WeatherCatV1.15B25,2013-06-04 05:51:00,
2013-06-04 00:56:00,58.1,55.8,30.00,SSE,150,1.0,4.0,92,0.00,,,0.00,WeatherCatV1.15B25,2013-06-04 05:56:00,
2013-06-04 01:01:00,58.1,55.8,30.00,SE,145,0.0,3.0,92,0.00,,,0.00,WeatherCatV1.15B25,2013-06-04 06:01:00,
2013-06-04 01:06:00,58.1,55.8,30.00,ESE,119,1.0,5.0,92,0.00,,,0.00,WeatherCatV1.15B25,2013-06-04 06:06:00,
2013-06-04 01:11:00,58.1,55.8,30.00,SE,133,0.0,4.0,92,0.00,,,0.00,WeatherCatV1.15B25,2013-06-04 06:11:00,
2013-06-04 01:16:00,58.1,55.8,30.00,SSE,148,1.0,2.0,92,0.00,,,0.00,WeatherCatV1.15B25,2013-06-04 06:16:00,
2013-06-04 01:21:00,58.1,55.8,30.00,East,96,2.0,3.0,92,0.00,,,0.00,WeatherCatV1.15B25,2013-06-04 06:21:00,
2013-06-04 01:26:00,58.2,55.9,29.99,SE,139,2.0,2.0,92,0.00,,,0.00,WeatherCatV1.15B25,2013-06-04 06:26:00,
2013-06-04 01:31:00,58.2,55.9,29.99,SSE,159,1.0,5.0,92,0.00,,,0.00,WeatherCatV1.15B25,2013-06-04 06:31:00,
2013-06-04 01:36:00,58.2,55.9,29.99,South,171,2.0,2.0,92,0.00,,,0.00,WeatherCatV1.15B25,2013-06-04 06:36:00,
2013-06-04 01:41:00,58.2,55.9,29.99,SE,145,2.0,3.0,92,0.00,,,0.00,WeatherCatV1.15B25,2013-06-04 06:41:00,
2013-06-04 01:46:00,58.3,56.0,29.99,SSE,149,0.0,4.0,92,0.00,,,0.00,WeatherCatV1.15B25,2013-06-04 06:46:00,
2013-06-04 01:51:00,58.3,56.0,29.98,SSE,164,2.0,5.0,92,0.00,,,0.00,WeatherCatV1.15B25,2013-06-04 06:51:00,
2013-06-04 01:56:00,58.4,56.1,29.98,SE,138,2.0,4.0,92,0.00,,,0.00,WeatherCatV1.15B25,2013-06-04 06:56:00,
2013-06-04 02:01:00,58.4,56.1,29.98,SSE,149,1.0,4.0,92,0.00,,,0.00,WeatherCatV1.15B25,2013-06-04 07:01:00,
2013-06-04 02:06:00,58.4,56.1,29.97,SE,143,2.0,5.0,92,0.00,,,0.00,WeatherCatV1.15B25,2013-06-04 07:06:00,
2013-06-04 02:11:00,58.4,56.1,29.98,ESE,123,3.0,4.0,92,0.00,,,0.00,WeatherCatV1.15B25,2013-06-04 07:11:00,
2013-06-04 02:16:00,58.4,56.1,29.97,ESE,109,7.0,7.0,92,0.00,,,0.00,WeatherCatV1.15B25,2013-06-04 07:16:00,
2013-06-04 02:21:00,58.5,56.2,29.97,SE,135,4.0,4.0,92,0.00,,,0.00,WeatherCatV1.15B25,2013-06-04 07:21:00,
2013-06-04 02:26:00,58.5,56.2,29.98,SE,128,4.0,7.0,92,0.00,,,0.00,WeatherCatV1.15B25,2013-06-04 07:26:00,
2013-06-04 02:31:00,58.5,56.2,29.97,SE,133,2.0,7.0,92,0.00,,,0.00,WeatherCatV1.15B25,2013-06-04 07:31:00,
2013-06-04 02:36:00,58.5,56.2,29.98,SE,130,4.0,6.0,92,0.00,,,0.00,WeatherCatV1.15B25,2013-06-04 07:36:00,
2013-06-04 02:41:00,58.6,56.3,29.97,SE,140,2.0,7.0,92,0.00,,,0.00,WeatherCatV1.15B25,2013-06-04 07:41:00,
2013-06-04 02:46:00,58.6,56.3,29.98,SSE,164,3.0,6.0,92,0.00,,,0.00,WeatherCatV1.15B25,2013-06-04 07:46:00,
2013-06-04 02:51:00,58.7,56.4,29.98,SSE,167,2.0,5.0,92,0.00,,,0.00,WeatherCatV1.15B25,2013-06-04 07:51:00,
2013-06-04 02:56:00,58.6,56.3,29.98,SE,139,3.0,4.0,92,0.00,,,0.00,WeatherCatV1.15B25,2013-06-04 07:56:00,
2013-06-04 03:01:00,58.7,56.4,29.98,ESE,123,0.0,5.0,92,0.00,,,0.00,WeatherCatV1.15B25,2013-06-04 08:01:00,
2013-06-04 03:06:00,58.6,56.3,29.98,SE,130,1.0,3.0,92,0.00,,,0.00,WeatherCatV1.15B25,2013-06-04 08:06:00,
2013-06-04 03:11:00,58.6,56.3,29.98,SSE,153,0.0,3.0,92,0.00,,,0.00,WeatherCatV1.15B25,2013-06-04 08:11:00,
2013-06-04 03:16:00,58.5,56.2,29.97,SE,145,2.0,5.0,92,0.00,,,0.00,WeatherCatV1.15B25,2013-06-04 08:16:00,
2013-06-04 03:21:00,58.4,56.1,29.97,SE,132,2.0,5.0,92,0.00,,,0.00,WeatherCatV1.15B25,2013-06-04 08:21:00,
2013-06-04 03:26:00,58.3,56.0,29.97,SSE,153,1.0,2.0,92,0.00,,,0.00,WeatherCatV1.15B25,2013-06-04 08:26:00,
2013-06-04 03:31:00,58.3,56.0,29.97,South,175,3.0,4.0,92,0.00,,,0.00,WeatherCatV1.15B25,2013-06-04 08:31:00,
2013-06-04 03:36:00,58.3,56.0,29.97,ESE,123,2.0,6.0,92,0.00,,,0.00,WeatherCatV1.15B25,2013-06-04 08:36:00,
2013-06-04 03:41:00,58.2,55.9,29.97,SE,136,4.0,7.0,92,0.00,,,0.00,WeatherCatV1.15B25,2013-06-04 08:41:00,
2013-06-04 03:46:00,58.2,55.9,29.97,SE,135,2.0,3.0,92,0.00,,,0.00,WeatherCatV1.15B25,2013-06-04 08:46:00,
2013-06-04 03:51:00,58.1,55.8,29.97,SE,139,1.0,5.0,92,0.00,,,0.00,WeatherCatV1.15B25,2013-06-04 08:51:00,
2013-06-04 03:56:00,58.1,55.8,29.96,ESE,120,3.0,5.0,92,0.00,,,0.00,WeatherCatV1.15B25,2013-06-04 08:56:00,
2013-06-04 04:01:00,58.0,55.7,29.96,ESE,119,1.0,5.0,92,0.00,,,0.00,WeatherCatV1.15B25,2013-06-04 09:01:00,
2013-06-04 04:06:00,58.0,55.7,29.95,SSE,155,1.0,3.0,92,0.00,,,0.00,WeatherCatV1.15B25,2013-06-04 09:06:00,
2013-06-04 04:11:00,58.1,55.8,29.95,ESE,118,2.0,4.0,92,0.00,,,0.00,WeatherCatV1.15B25,2013-06-04 09:11:00,
2013-06-04 04:16:00,58.0,55.7,29.95,SSE,165,2.0,4.0,92,0.00,,,0.00,WeatherCatV1.15B25,2013-06-04 09:16:00,
2013-06-04 04:21:00,58.0,55.7,29.96,SSE,150,3.0,3.0,92,0.00,,,0.00,WeatherCatV1.15B25,2013-06-04 09:21:00,
2013-06-04 04:26:00,58.0,55.7,29.96,SE,138,2.0,4.0,92,0.00,,,0.00,WeatherCatV1.15B25,2013-06-04 09:26:00,
2013-06-04 04:31:00,58.0,55.7,29.97,South,188,0.0,4.0,92,0.00,,,0.00,WeatherCatV1.15B25,2013-06-04 09:31:00,
2013-06-04 04:36:00,57.9,55.6,29.97,SE,131,0.0,3.0,92,0.00,,,0.00,WeatherCatV1.15B25,2013-06-04 09:36:00,
2013-06-04 04:41:00,57.8,55.5,29.97,South,169,0.0,4.0,92,0.00,,,0.00,WeatherCatV1.15B25,2013-06-04 09:41:00,
2013-06-04 04:46:00,57.8,55.5,29.97,South,174,1.0,4.0,92,0.00,,,0.00,WeatherCatV1.15B25,2013-06-04 09:46:00,
2013-06-04 04:51:00,57.8,55.5,29.97,ESE,113,0.0,1.0,92,0.00,,,0.00,WeatherCatV1.15B25,2013-06-04 09:51:00,
2013-06-04 04:56:00,57.7,55.4,29.97,ESE,122,2.0,4.0,92,0.00,,,0.00,WeatherCatV1.15B25,2013-06-04 09:56:00,
2013-06-04 05:01:00,57.6,55.3,29.97,SE,126,3.0,6.0,92,0.00,,,0.00,WeatherCatV1.15B25,2013-06-04 10:01:00,
2013-06-04 05:06:00,57.5,55.5,29.98,SSE,167,1.0,7.0,93,0.00,,,0.00,WeatherCatV1.15B25,2013-06-04 10:06:00,
2013-06-04 05:11:00,57.5,55.5,29.99,SE,146,0.0,5.0,93,0.00,,,0.00,WeatherCatV1.15B25,2013-06-04 10:11:00,
2013-06-04 05:16:00,57.6,55.6,29.98,SSE,165,1.0,3.0,93,0.00,,,0.00,WeatherCatV1.15B25,2013-06-04 10:16:00,
2013-06-04 05:21:00,57.5,55.5,29.98,SE,130,4.0,4.0,93,0.00,,,0.00,WeatherCatV1.15B25,2013-06-04 10:21:00,
2013-06-04 05:26:00,57.5,55.5,29.99,SSE,159,1.0,5.0,93,0.00,,,0.00,WeatherCatV1.15B25,2013-06-04 10:26:00,
2013-06-04 05:31:00,57.5,55.5,29.99,ESE,105,3.0,4.0,93,0.00,,,0.00,WeatherCatV1.15B25,2013-06-04 10:31:00,
2013-06-04 05:36:00,57.4,55.4,29.99,SE,141,2.0,6.0,93,0.00,,,0.00,WeatherCatV1.15B25,2013-06-04 10:36:00,
2013-06-04 05:41:00,57.4,55.4,29.99,SE,136,1.0,6.0,93,0.00,,,0.00,WeatherCatV1.15B25,2013-06-04 10:41:00,
2013-06-04 05:46:00,57.4,55.4,29.99,SSE,168,3.0,5.0,93,0.00,,,0.00,WeatherCatV1.15B25,2013-06-04 10:46:00,
2013-06-04 05:51:00,57.4,55.4,30.00,South,169,3.0,5.0,93,0.00,,,0.00,WeatherCatV1.15B25,2013-06-04 10:51:00,
2013-06-04 05:56:00,57.4,55.4,30.00,SE,133,3.0,4.0,93,0.00,,,0.00,WeatherCatV1.15B25,2013-06-04 10:56:00,
2013-06-04 06:01:00,57.3,55.3,30.00,SE,136,0.0,5.0,93,0.00,,,0.00,WeatherCatV1.15B25,2013-06-04 11:01:00,
2013-06-04 06:06:00,57.3,55.3,30.00,SSE,165,3.0,5.0,93,0.00,,,0.00,WeatherCatV1.15B25,2013-06-04 11:06:00,
2013-06-04 06:11:00,57.3,55.3,30.00,ESE,107,2.0,5.0,93,0.00,,,0.00,WeatherCatV1.15B25,2013-06-04 11:11:00,
2013-06-04 06:16:00,57.3,55.3,29.99,SE,140,3.0,3.0,93,0.00,,,0.00,WeatherCatV1.15B25,2013-06-04 11:16:00,
2013-06-04 06:21:00,57.2,55.2,29.99,SE,138,1.0,4.0,93,0.00,,,0.00,WeatherCatV1.15B25,2013-06-04 11:21:00,
2013-06-04 06:26:00,57.3,55.6,29.99,ESE,110,3.0,9.0,94,0.00,,,0.00,WeatherCatV1.15B25,2013-06-04 11:26:00,
2013-06-04 06:31:00,57.3,55.6,29.99,SE,125,4.0,6.0,94,0.00,,,0.00,WeatherCatV1.15B25,2013-06-04 11:31:00,
2013-06-04 06:36:00,57.4,55.7,29.99,ESE,120,3.0,8.0,94,0.00,,,0.00,WeatherCatV1.15B25,2013-06-04 11:36:00,
2013-06-04 06:41:00,57.5,55.8,29.99,ESE,118,3.0,7.0,94,0.00,,,0.00,WeatherCatV1.15B25,2013-06-04 11:41:00,
2013-06-04 06:46:00,57.6,55.9,29.99,SE,128,3.0,6.0,94,0.00,,,0.00,WeatherCatV1.15B25,2013-06-04 11:46:00,
2013-06-04 06:51:00,57.7,55.7,29.99,SE,137,2.0,8.0,93,0.00,,,0.00,WeatherCatV1.15B25,2013-06-04 11:51:00,
2013-06-04 06:56:00,57.8,55.8,29.99,SE,125,4.0,4.0,93,0.00,,,0.00,WeatherCatV1.15B25,2013-06-04 11:56:00,
2013-06-04 07:01:00,58.0,56.0,29.99,ESE,114,2.0,7.0,93,0.00,,,0.00,WeatherCatV1.15B25,2013-06-04 12:01:00,
2013-06-04 07:06:00,58.2,56.2,29.98,SSE,155,1.0,7.0,93,0.00,,,0.00,WeatherCatV1.15B25,2013-06-04 12:06:00,
2013-06-04 07:11:00,58.4,56.4,29.98,SE,142,3.0,6.0,93,0.00,,,0.00,WeatherCatV1.15B25,2013-06-04 12:11:00,
2013-06-04 07:16:00,58.6,56.3,29.98,SE,137,5.0,9.0,92,0.00,,,0.00,WeatherCatV1.15B25,2013-06-04 12:16:00,
2013-06-04 07:21:00,58.9,56.6,29.98,SE,136,2.0,5.0,92,0.00,,,0.00,WeatherCatV1.15B25,2013-06-04 12:21:00,
2013-06-04 07:26:00,59.1,56.5,29.99,South,180,7.0,7.0,91,0.00,,,0.00,WeatherCatV1.15B25,2013-06-04 12:26:00,
2013-06-04 07:31:00,59.3,56.7,29.99,SSE,147,4.0,4.0,91,0.00,,,0.00,WeatherCatV1.15B25,2013-06-04 12:31:00,
2013-06-04 07:36:00,59.5,56.6,29.99,SSE,161,0.0,9.0,90,0.00,,,0.00,WeatherCatV1.15B25,2013-06-04 12:36:00,
2013-06-04 07:41:00,59.7,56.8,29.99,SSE,154,5.0,12.0,90,0.00,,,0.00,WeatherCatV1.15B25,2013-06-04 12:41:00,
2013-06-04 07:46:00,59.9,57.0,29.99,SE,141,0.0,8.0,90,0.00,,,0.00,WeatherCatV1.15B25,2013-06-04 12:46:00,
2013-06-04 07:51:00,60.1,57.2,29.99,SSW,200,4.0,10.0,90,0.00,,,0.00,WeatherCatV1.15B25,2013-06-04 12:51:00,
2013-06-04 07:56:00,60.4,57.1,29.99,SE,126,6.0,6.0,89,0.00,,,0.00,WeatherCatV1.15B25,2013-06-04 12:56:00,
2013-06-04 08:01:00,60.8,57.2,29.99,ESE,108,10.0,13.0,88,0.00,,,0.00,WeatherCatV1.15B25,2013-06-04 13:01:00,
2013-06-04 08:06:00,61.1,57.2,29.99,SSW,205,6.0,12.0,87,0.00,,,0.00,WeatherCatV1.15B25,2013-06-04 13:06:00,
2013-06-04 08:11:00,61.4,57.8,29.99,SE,144,1.0,8.0,88,0.00,,,0.00,WeatherCatV1.15B25,2013-06-04 13:11:00,
2013-06-04 08:16:00,61.6,57.4,29.99,ESE,103,7.0,11.0,86,0.00,,,0.00,WeatherCatV1.15B25,2013-06-04 13:16:00,
2013-06-04 08:21:00,61.8,57.6,29.99,SE,124,6.0,7.0,86,0.00,,,0.00,WeatherCatV1.15B25,2013-06-04 13:21:00,
2013-06-04 08:26:00,62.0,57.8,30.00,SSE,168,3.0,7.0,86,0.00,,,0.00,WeatherCatV1.15B25,2013-06-04 13:26:00,
2013-06-04 08:31:00,62.1,57.9,29.99,SE,124,7.0,7.0,86,0.00,,,0.00,WeatherCatV1.15B25,2013-06-04 13:31:00,
2013-06-04 08:36:00,62.3,58.1,30.00,South,185,8.0,8.0,86,0.00,,,0.00,WeatherCatV1.15B25,2013-06-04 13:36:00,
2013-06-04 08:41:00,62.6,58.3,30.00,East,92,3.0,11.0,86,0.00,,,0.00,WeatherCatV1.15B25,2013-06-04 13:41:00,
2013-06-04 08:46:00,62.8,58.2,30.00,ESE,105,4.0,10.0,85,0.00,,,0.00,WeatherCatV1.15B25,2013-06-04 13:46:00,
2013-06-04 08:51:00,63.1,58.5,30.01,South,186,1.0,7.0,85,0.00,,,0.00,WeatherCatV1.15B25,2013-06-04 13:51:00,
2013-06-04 08:56:00,63.4,58.5,30.01,South,191,3.0,7.0,84,0.00,,,0.00,WeatherCatV1.15B25,2013-06-04 13:56:00,
2013-06-04 09:01:00,63.6,58.7,30.02,SSE,153,4.0,5.0,84,0.00,,,0.00,WeatherCatV1.15B25,2013-06-04 14:01:00,
2013-06-04 09:06:00,63.8,58.5,30.02,SE,144,3.0,3.0,83,0.00,,,0.00,WeatherCatV1.15B25,2013-06-04 14:06:00,
2013-06-04 09:11:00,64.0,58.7,30.02,SW,215,3.0,4.0,83,0.00,,,0.00,WeatherCatV1.15B25,2013-06-04 14:11:00,
2013-06-04 09:16:00,64.2,58.9,30.02,South,187,1.0,9.0,83,0.00,,,0.00,WeatherCatV1.15B25,2013-06-04 14:16:00,
2013-06-04 09:21:00,64.4,58.8,30.03,SE,136,2.0,8.0,82,0.00,,,0.00,WeatherCatV1.15B25,2013-06-04 14:21:00,
2013-06-04 09:26:00,64.6,59.3,30.03,WSW,254,1.0,8.0,83,0.00,,,0.00,WeatherCatV1.15B25,2013-06-04 14:26:00,
2013-06-04 09:31:00,64.8,59.2,30.03,South,188,4.0,5.0,82,0.00,,,0.00,WeatherCatV1.15B25,2013-06-04 14:31:00,
2013-06-04 09:36:00,65.1,59.8,30.03,SSW,201,0.0,4.0,83,0.00,,,0.00,WeatherCatV1.15B25,2013-06-04 14:36:00,
2013-06-04 09:41:00,65.4,59.8,30.03,South,186,1.0,7.0,82,0.00,,,0.00,WeatherCatV1.15B25,2013-06-04 14:41:00,
2013-06-04 09:46:00,65.8,60.1,30.03,SSE,156,3.0,7.0,82,0.00,,,0.00,WeatherCatV1.15B25,2013-06-04 14:46:00,
2013-06-04 09:51:00,66.1,60.4,30.03,SSW,209,0.0,5.0,82,0.00,,,0.00,WeatherCatV1.15B25,2013-06-04 14:51:00,
2013-06-04 09:56:00,66.6,61.6,30.03,South,172,3.0,4.0,84,0.00,,,0.00,WeatherCatV1.15B25,2013-06-04 14:56:00,
2013-06-04 10:01:00,66.8,60.4,30.02,SW,223,1.0,8.0,80,0.00,,,0.00,WeatherCatV1.15B25,2013-06-04 15:01:00,
2013-06-04 10:06:00,67.1,61.1,30.02,SE,132,7.0,7.0,81,0.00,,,0.00,WeatherCatV1.15B25,2013-06-04 15:06:00,
2013-06-04 10:11:00,67.1,60.4,30.02,SE,131,5.0,9.0,79,0.00,,,0.00,WeatherCatV1.15B25,2013-06-04 15:11:00,
2013-06-04 10:16:00,67.1,60.4,30.02,SE,126,5.0,11.0,79,0.00,,,0.00,WeatherCatV1.15B25,2013-06-04 15:16:00,
2013-06-04 10:21:00,67.3,60.6,30.02,SSW,196,5.0,12.0,79,0.00,,,0.00,WeatherCatV1.15B25,2013-06-04 15:21:00,
2013-06-04 10:26:00,67.6,60.8,30.02,East,84,7.0,9.0,79,0.00,,,0.00,WeatherCatV1.15B25,2013-06-04 15:26:00,
2013-06-04 10:31:00,67.7,61.3,30.02,SE,145,4.0,5.0,80,0.00,,,0.00,WeatherCatV1.15B25,2013-06-04 15:31:00,
2013-06-04 10:36:00,67.7,60.9,30.02,South,169,6.0,7.0,79,0.00,,,0.00,WeatherCatV1.15B25,2013-06-04 15:36:00,
2013-06-04 10:41:00,67.7,60.9,30.01,SE,144,1.0,9.0,79,0.00,,,0.00,WeatherCatV1.15B25,2013-06-04 15:41:00,
2013-06-04 10:46:00,67.6,60.8,30.01,ESE,123,4.0,8.0,79,0.00,,,0.00,WeatherCatV1.15B25,2013-06-04 15:46:00,
2013-06-04 10:51:00,67.7,61.3,30.01,SE,144,0.0,4.0,80,0.00,,,0.00,WeatherCatV1.15B25,2013-06-04 15:51:00,
2013-06-04 10:56:00,68.1,62.0,30.01,SSE,153,2.0,9.0,81,0.00,,,0.00,WeatherCatV1.15B25,2013-06-04 15:56:00,
2013-06-04 11:01:00,68.5,61.7,30.01,ESE,117,9.0,11.0,79,0.00,,,0.00,WeatherCatV1.15B25,2013-06-04 16:01:00,
2013-06-04 11:06:00,68.8,62.7,30.01,North,355,2.0,4.0,81,0.00,,,0.00,WeatherCatV1.15B25,2013-06-04 16:06:00,
2013-06-04 11:11:00,69.2,61.7,30.01,East,98,8.0,11.0,77,0.00,,,0.00,WeatherCatV1.15B25,2013-06-04 16:11:00,
2013-06-04 11:16:00,69.3,62.5,30.02,SE,130,6.0,7.0,79,0.00,,,0.00,WeatherCatV1.15B25,2013-06-04 16:16:00,
2013-06-04 11:21:00,69.5,62.0,30.02,SSE,160,3.0,9.0,77,0.00,,,0.00,WeatherCatV1.15B25,2013-06-04 16:21:00,
2013-06-04 11:26:00,69.9,62.7,30.01,SE,133,4.0,6.0,78,0.00,,,0.00,WeatherCatV1.15B25,2013-06-04 16:26:00,
2013-06-04 11:31:00,70.0,62.4,30.01,SE,143,4.0,8.0,77,0.00,,,0.00,WeatherCatV1.15B25,2013-06-04 16:31:00,
2013-06-04 11:36:00,70.3,62.7,30.01,ESE,116,5.0,8.0,77,0.00,,,0.00,WeatherCatV1.15B25,2013-06-04 16:36:00,
2013-06-04 11:41:00,70.6,63.8,30.01,SE,140,2.0,4.0,79,0.00,,,0.00,WeatherCatV1.15B25,2013-06-04 16:41:00,
2013-06-04 11:46:00,70.9,63.7,30.01,SE,135,4.0,7.0,78,0.00,,,0.00,WeatherCatV1.15B25,2013-06-04 16:46:00,
2013-06-04 11:51:00,70.9,62.9,30.01,ESE,121,2.0,3.0,76,0.00,,,0.00,WeatherCatV1.15B25,2013-06-04 16:51:00,
2013-06-04 11:56:00,70.8,62.8,30.01,SE,132,4.0,7.0,76,0.00,,,0.00,WeatherCatV1.15B25,2013-06-04 16:56:00,
2013-06-04 12:01:00,70.9,63.3,30.02,SE,139,5.0,5.0,77,0.00,,,0.00,WeatherCatV1.15B25,2013-06-04 17:01:00,
2013-06-04 12:06:00,71.1,63.1,30.02,East,88,2.0,6.0,76,0.00,,,0.00,WeatherCatV1.15B25,2013-06-04 17:06:00,
2013-06-04 12:11:00,71.4,63.0,30.01,East,92,5.0,9.0,75,0.00,,,0.00,WeatherCatV1.15B25,2013-06-04 17:11:00,
2013-06-04 12:16:00,71.6,63.2,30.02,SE,136,5.0,8.0,75,0.00,,,0.00,WeatherCatV1.15B25,2013-06-04 17:16:00,
2013-06-04 12:21:00,72.1,64.5,30.01,SE,131,3.0,9.0,77,0.00,,,0.00,WeatherCatV1.15B25,2013-06-04 17:21:00,
2013-06-04 12:26:00,72.7,63.1,30.01,SSE,159,6.0,8.0,72,0.00,,,0.00,WeatherCatV1.15B25,2013-06-04 17:26:00,
2013-06-04 12:31:00,73.0,63.4,30.01,SE,135,3.0,6.0,72,0.00,,,0.00,WeatherCatV1.15B25,2013-06-04 17:31:00,
2013-06-04 12:36:00,73.3,64.5,30.01,SE,128,5.0,8.0,74,0.00,,,0.00,WeatherCatV1.15B25,2013-06-04 17:36:00,
2013-06-04 12:41:00,73.5,63.9,30.01,SE,126,2.0,7.0,72,0.00,,,0.00,WeatherCatV1.15B25,2013-06-04 17:41:00,
2013-06-04 12:46:00,73.6,64.0,30.01,SW,214,4.0,10.0,72,0.00,,,0.00,WeatherCatV1.15B25,2013-06-04 17:46:00,
2013-06-04 12:51:00,73.9,63.5,30.00,SSE,157,1.0,6.0,70,0.00,,,0.00,WeatherCatV1.15B25,2013-06-04 17:51:00,
2013-06-04 12:56:00,74.4,65.2,30.00,SW,221,3.0,10.0,73,0.00,,,0.00,WeatherCatV1.15B25,2013-06-04 17:56:00,
2013-06-04 13:01:00,74.4,65.6,30.00,ESE,119,3.0,3.0,74,0.00,,,0.00,WeatherCatV1.15B25,2013-06-04 18:01:00,
2013-06-04 13:06:00,74.4,64.8,30.00,South,171,3.0,9.0,72,0.00,,,0.00,WeatherCatV1.15B25,2013-06-04 18:06:00,
2013-06-04 13:11:00,74.3,65.1,30.00,South,172,4.0,6.0,73,0.00,,,0.00,WeatherCatV1.15B25,2013-06-04 18:11:00,
2013-06-04 13:16:00,74.3,64.3,29.99,SSE,150,3.0,5.0,71,0.00,,,0.00,WeatherCatV1.15B25,2013-06-04 18:16:00,
2013-06-04 13:21:00,74.3,63.9,30.00,SSW,199,2.0,5.0,70,0.00,,,0.00,WeatherCatV1.15B25,2013-06-04 18:21:00,
2013-06-04 13:26:00,74.5,64.9,29.99,SSE,164,1.0,4.0,72,0.00,,,0.00,WeatherCatV1.15B25,2013-06-04 18:26:00,
2013-06-04 13:31:00,74.4,64.4,29.99,SE,128,3.0,7.0,71,0.00,,,0.00,WeatherCatV1.15B25,2013-06-04 18:31:00,
2013-06-04 13:36:00,74.2,63.8,29.99,East,80,2.0,4.0,70,0.00,,,0.00,WeatherCatV1.15B25,2013-06-04 18:36:00,
2013-06-04 13:41:00,74.1,64.5,29.99,ESE,121,2.0,3.0,72,0.00,,,0.00,WeatherCatV1.15B25,2013-06-04 18:41:00,
2013-06-04 13:46:00,73.9,63.9,29.98,South,180,1.0,1.0,71,0.00,,,0.00,WeatherCatV1.15B25,2013-06-04 18:46:00,
2013-06-04 13:51:00,73.9,63.9,29.98,SE,135,3.0,3.0,71,0.00,,,0.00,WeatherCatV1.15B25,2013-06-04 18:51:00,
2013-06-04 13:56:00,73.7,63.7,29.98,South,181,0.0,5.0,71,0.00,,,0.00,WeatherCatV1.15B25,2013-06-04 18:56:00,
2013-06-04 14:01:00,73.6,63.6,29.98,ESE,117,1.0,5.0,71,0.00,,,0.00,WeatherCatV1.15B25,2013-06-04 19:01:00,
2013-06-04 14:06:00,73.6,64.0,29.98,East,101,0.0,0.0,72,0.00,,,0.00,WeatherCatV1.15B25,2013-06-04 19:06:00,
2013-06-04 14:11:00,73.7,64.9,29.97,SSE,154,0.0,1.0,74,0.00,,,0.00,WeatherCatV1.15B25,2013-06-04 19:11:00,
2013-06-04 14:16:00,73.6,64.4,29.97,East,80,2.0,5.0,73,0.00,,,0.00,WeatherCatV1.15B25,2013-06-04 19:16:00,
2013-06-04 14:21:00,73.5,64.7,29.97,ESE,120,2.0,3.0,74,0.00,,,0.00,WeatherCatV1.15B25,2013-06-04 19:21:00,
2013-06-04 14:26:00,73.4,65.4,29.97,SSE,165,3.0,4.0,76,0.00,,,0.00,WeatherCatV1.15B25,2013-06-04 19:26:00,
2013-06-04 14:31:00,73.3,64.5,29.97,South,182,4.0,4.0,74,0.00,,,0.00,WeatherCatV1.15B25,2013-06-04 19:31:00,
2013-06-04 14:36:00,73.1,64.3,29.98,South,188,0.0,2.0,74,0.00,,,0.00,WeatherCatV1.15B25,2013-06-04 19:36:00,
2013-06-04 14:41:00,73.1,63.9,29.99,SSW,199,0.0,3.0,73,0.00,,,0.00,WeatherCatV1.15B25,2013-06-04 19:41:00,
2013-06-04 14:46:00,73.0,64.6,29.99,SSW,202,1.0,4.0,75,0.00,,,0.00,WeatherCatV1.15B25,2013-06-04 19:46:00,
2013-06-04 14:51:00,72.8,64.4,29.98,East,99,2.0,2.0,75,0.00,,,0.00,WeatherCatV1.15B25,2013-06-04 19:51:00,
2013-06-04 14:56:00,72.5,64.5,29.95,ENE,59,5.0,7.0,76,0.00,,,0.00,WeatherCatV1.15B25,2013-06-04 19:56:00,
2013-06-04 15:01:00,72.2,63.4,29.96,SSE,153,1.0,5.0,74,0.00,,,0.00,WeatherCatV1.15B25,2013-06-04 20:01:00,
2013-06-04 15:06:00,72.1,64.1,29.97,SE,137,0.0,3.0,76,0.00,,,0.00,WeatherCatV1.15B25,2013-06-04 20:06:00,
2013-06-04 15:11:00,72.0,63.6,29.96,ENE,62,2.0,4.0,75,0.00,,,0.00,WeatherCatV1.15B25,2013-06-04 20:11:00,
2013-06-04 15:16:00,71.9,64.3,29.95,East,91,0.0,1.0,77,0.00,,,0.00,WeatherCatV1.15B25,2013-06-04 20:16:00,
2013-06-04 15:21:00,71.9,63.9,29.95,SSE,150,2.0,4.0,76,0.00,,,0.00,WeatherCatV1.15B25,2013-06-04 20:21:00,
2013-06-04 15:26:00,72.0,64.4,29.96,East,96,0.0,2.0,77,0.00,,,0.00,WeatherCatV1.15B25,2013-06-04 20:26:00,
2013-06-04 15:31:00,72.1,64.8,29.96,SE,126,3.0,4.0,78,0.00,,,0.00,WeatherCatV1.15B25,2013-06-04 20:31:00,
2013-06-04 15:35:00,72.1,64.5,29.96,ESE,117,0.0,5.0,77,0.00,,,0.00,WeatherCatV1.15B25,2013-06-04 20:35:00,
2013-06-04 15:36:00,72.1,65.2,29.96,ESE,103,0.0,5.0,79,0.00,,,0.00,WeatherCatV1.15B25,2013-06-04 20:36:00,
2013-06-04 15:41:00,72.1,64.5,29.95,SE,132,1.0,6.0,77,0.00,,,0.00,WeatherCatV1.15B25,2013-06-04 20:41:00,
2013-06-04 15:46:00,72.1,64.5,29.95,East,99,2.0,7.0,77,0.00,,,0.00,WeatherCatV1.15B25,2013-06-04 20:46:00,
2013-06-04 15:51:00,71.7,63.7,29.94,ESE,120,2.0,7.0,76,0.00,,,0.00,WeatherCatV1.15B25,2013-06-04 20:51:00,
2013-06-04 15:56:00,71.6,64.4,29.94,ENE,63,3.0,6.0,78,0.00,,,0.00,WeatherCatV1.15B25,2013-06-04 20:56:00,
2013-06-04 16:01:00,71.5,63.5,29.94,ENE,61,1.0,9.0,76,0.00,,,0.00,WeatherCatV1.15B25,2013-06-04 21:01:00,
2013-06-04 16:06:00,71.4,64.2,29.94,East,91,6.0,9.0,78,0.00,,,0.00,WeatherCatV1.15B25,2013-06-04 21:06:00,
2013-06-04 16:11:00,71.4,63.8,29.94,East,80,6.0,7.0,77,0.00,,,0.00,WeatherCatV1.15B25,2013-06-04 21:11:00,
2013-06-04 16:16:00,71.4,64.5,29.94,ESE,105,3.0,8.0,79,0.00,,,0.00,WeatherCatV1.15B25,2013-06-04 21:16:00,
2013-06-04 16:21:00,71.4,63.8,29.94,East,96,1.0,5.0,77,0.00,,,0.00,WeatherCatV1.15B25,2013-06-04 21:21:00,
2013-06-04 16:26:00,71.4,64.2,29.94,ESE,103,3.0,6.0,78,0.00,,,0.00,WeatherCatV1.15B25,2013-06-04 21:26:00,
2013-06-04 16:31:00,71.3,63.7,29.94,SE,132,3.0,7.0,77,0.00,,,0.00,WeatherCatV1.15B25,2013-06-04 21:31:00,
2013-06-04 16:36:00,71.3,64.1,29.94,SE,134,6.0,7.0,78,0.00,,,0.00,WeatherCatV1.15B25,2013-06-04 21:36:00,
2013-06-04 16:41:00,71.2,64.3,29.94,ESE,105,0.0,3.0,79,0.00,,,0.00,WeatherCatV1.15B25,2013-06-04 21:41:00,
2013-06-04 16:46:00,71.2,64.3,29.93,ESE,112,4.0,6.0,79,0.00,,,0.00,WeatherCatV1.15B25,2013-06-04 21:46:00,
2013-06-04 16:51:00,71.2,64.3,29.93,ENE,71,2.0,4.0,79,0.00,,,0.00,WeatherCatV1.15B25,2013-06-04 21:51:00,
2013-06-04 16:56:00,71.2,64.3,29.93,South,170,1.0,5.0,79,0.00,,,0.00,WeatherCatV1.15B25,2013-06-04 21:56:00,
2013-06-04 17:01:00,71.2,64.3,29.93,East,101,2.0,6.0,79,0.00,,,0.00,WeatherCatV1.15B25,2013-06-04 22:01:00,
2013-06-04 17:06:00,71.1,63.9,29.93,ESE,106,2.0,5.0,78,0.00,,,0.00,WeatherCatV1.15B25,2013-06-04 22:06:00,
2013-06-04 17:11:00,71.1,63.9,29.93,ESE,106,2.0,3.0,78,0.00,,,0.00,WeatherCatV1.15B25,2013-06-04 22:11:00,
2013-06-04 17:16:00,71.1,63.9,29.93,East,92,6.0,6.0,78,0.00,,,0.00,WeatherCatV1.15B25,2013-06-04 22:16:00,
2013-06-04 17:21:00,71.1,63.9,29.93,South,175,0.0,1.0,78,0.00,,,0.00,WeatherCatV1.15B25,2013-06-04 22:21:00,
2013-06-04 17:26:00,71.2,64.3,29.93,East,98,0.0,2.0,79,0.00,,,0.00,WeatherCatV1.15B25,2013-06-04 22:26:00,
2013-06-04 17:31:00,71.3,64.8,29.93,ESE,109,2.0,4.0,80,0.00,,,0.00,WeatherCatV1.15B25,2013-06-04 22:31:00,
2013-06-04 17:36:00,71.6,64.4,29.93,East,101,2.0,10.0,78,0.00,,,0.00,WeatherCatV1.15B25,2013-06-04 22:36:00,
2013-06-04 17:41:00,71.9,64.7,29.92,NE,40,4.0,5.0,78,0.00,,,0.00,WeatherCatV1.15B25,2013-06-04 22:41:00,
2013-06-04 17:46:00,71.9,64.7,29.93,SE,146,7.0,8.0,78,0.00,,,0.00,WeatherCatV1.15B25,2013-06-04 22:46:00,
2013-06-04 17:51:00,71.9,64.7,29.93,SSE,155,2.0,7.0,78,0.00,,,0.00,WeatherCatV1.15B25,2013-06-04 22:51:00,
2013-06-04 17:56:00,71.9,64.7,29.93,SSE,155,1.0,7.0,78,0.00,,,0.00,WeatherCatV1.15B25,2013-06-04 22:56:00,
2013-06-04 18:01:00,71.8,64.2,29.93,SE,144,2.0,8.0,77,0.00,,,0.00,WeatherCatV1.15B25,2013-06-04 23:01:00,
2013-06-04 18:06:00,71.8,64.2,29.94,SSE,148,2.0,4.0,77,0.00,,,0.00,WeatherCatV1.15B25,2013-06-04 23:06:00,
2013-06-04 18:11:00,71.9,63.5,29.94,SE,130,4.0,5.0,75,0.00,,,0.00,WeatherCatV1.15B25,2013-06-04 23:11:00,
2013-06-04 18:16:00,71.9,63.9,29.94,SSE,161,1.0,6.0,76,0.00,,,0.00,WeatherCatV1.15B25,2013-06-04 23:16:00,
2013-06-04 18:21:00,72.2,64.2,29.94,East,94,5.0,5.0,76,0.00,,,0.00,WeatherCatV1.15B25,2013-06-04 23:21:00,
2013-06-04 18:26:00,72.5,63.7,29.95,SSE,159,0.0,4.0,74,0.00,,,0.00,WeatherCatV1.15B25,2013-06-04 23:26:00,
2013-06-04 18:31:00,72.5,63.7,29.94,SE,136,3.0,6.0,74,0.00,,,0.00,WeatherCatV1.15B25,2013-06-04 23:31:00,
2013-06-04 18:36:00,72.4,63.6,29.94,ESE,121,3.0,5.0,74,0.00,,,0.00,WeatherCatV1.15B25,2013-06-04 23:36:00,
2013-06-04 18:41:00,72.2,63.4,29.95,East,100,3.0,8.0,74,0.00,,,0.00,WeatherCatV1.15B25,2013-06-04 23:41:00,
2013-06-04 18:46:00,72.0,62.9,29.95,SE,140,5.0,6.0,73,0.00,,,0.00,WeatherCatV1.15B25,2013-06-04 23:46:00,
2013-06-04 18:51:00,71.8,63.1,29.95,ESE,102,7.0,8.0,74,0.00,,,0.00,WeatherCatV1.15B25,2013-06-04 23:51:00,
2013-06-04 18:56:00,71.7,62.6,29.95,SE,132,1.0,7.0,73,0.00,,,0.00,WeatherCatV1.15B25,2013-06-04 23:56:00,
2013-06-04 19:01:00,71.6,62.9,29.95,SSE,154,0.0,4.0,74,0.00,,,0.00,WeatherCatV1.15B25,2013-06-05 00:01:00,
2013-06-04 19:06:00,71.4,61.9,29.95,SE,142,1.0,8.0,72,0.00,,,0.00,WeatherCatV1.15B25,2013-06-05 00:06:00,
2013-06-04 19:11:00,71.3,62.6,29.95,SE,130,1.0,5.0,74,0.00,,,0.00,WeatherCatV1.15B25,2013-06-05 00:11:00,
2013-06-04 19:16:00,71.2,62.5,29.95,ESE,113,1.0,2.0,74,0.00,,,0.00,WeatherCatV1.15B25,2013-06-05 00:16:00,
2013-06-04 19:21:00,71.1,62.4,29.95,SSE,147,2.0,4.0,74,0.00,,,0.00,WeatherCatV1.15B25,2013-06-05 00:21:00,
2013-06-04 19:26:00,71.0,62.7,29.95,SE,133,1.0,2.0,75,0.00,,,0.00,WeatherCatV1.15B25,2013-06-05 00:26:00,
2013-06-04 19:31:00,70.9,62.6,29.95,SE,136,1.0,4.0,75,0.00,,,0.00,WeatherCatV1.15B25,2013-06-05 00:31:00,
2013-06-04 19:36:00,70.9,62.9,29.96,ESE,118,0.0,2.0,76,0.00,,,0.00,WeatherCatV1.15B25,2013-06-05 00:36:00,
2013-06-04 19:41:00,70.9,62.9,29.95,East,94,0.0,3.0,76,0.00,,,0.00,WeatherCatV1.15B25,2013-06-05 00:41:00,
2013-06-04 19:46:00,70.9,63.3,29.96,SSE,165,1.0,1.0,77,0.00,,,0.00,WeatherCatV1.15B25,2013-06-05 00:46:00,
2013-06-04 19:51:00,70.8,63.2,29.96,SE,142,1.0,3.0,77,0.00,,,0.00,WeatherCatV1.15B25,2013-06-05 00:51:00,
2013-06-04 19:56:00,70.7,63.1,29.96,SE,146,0.0,2.0,77,0.00,,,0.00,WeatherCatV1.15B25,2013-06-05 00:56:00,
2013-06-04 20:01:00,70.6,62.7,29.96,SE,144,0.0,1.0,76,0.00,,,0.00,WeatherCatV1.15B25,2013-06-05 01:01:00,
2013-06-04 20:06:00,70.4,62.8,29.96,SSE,148,0.0,1.0,77,0.00,,,0.00,WeatherCatV1.15B25,2013-06-05 01:06:00,
2013-06-04 20:11:00,70.3,63.1,29.96,SSE,148,0.0,0.0,78,0.00,,,0.00,WeatherCatV1.15B25,2013-06-05 01:11:00,
2013-06-04 20:16:00,70.0,63.2,29.96,SSE,147,0.0,0.0,79,0.00,,,0.00,WeatherCatV1.15B25,2013-06-05 01:16:00,
2013-06-04 20:21:00,69.7,62.9,29.96,SSE,147,0.0,0.0,79,0.00,,,0.00,WeatherCatV1.15B25,2013-06-05 01:21:00,
2013-06-04 20:26:00,69.4,63.0,29.96,East,101,0.0,0.0,80,0.00,,,0.00,WeatherCatV1.15B25,2013-06-05 01:26:00,
2013-06-04 20:31:00,69.1,62.7,29.96,East,101,0.0,0.0,80,0.00,,,0.00,WeatherCatV1.15B25,2013-06-05 01:31:00,
2013-06-04 20:36:00,68.7,62.3,29.96,East,101,0.0,0.0,80,0.00,,,0.00,WeatherCatV1.15B25,2013-06-05 01:36:00,
2013-06-04 20:41:00,68.3,61.9,29.96,East,101,0.0,0.0,80,0.00,,,0.00,WeatherCatV1.15B25,2013-06-05 01:41:00,
2013-06-04 20:46:00,68.0,61.9,29.96,ESE,116,0.0,0.0,81,0.00,,,0.00,WeatherCatV1.15B25,2013-06-05 01:46:00,
2013-06-04 20:51:00,67.7,61.7,29.97,ESE,116,0.0,0.0,81,0.00,,,0.00,WeatherCatV1.15B25,2013-06-05 01:51:00,
2013-06-04 20:56:00,67.4,61.7,29.97,ESE,116,0.0,0.0,82,0.00,,,0.00,WeatherCatV1.15B25,2013-06-05 01:56:00,
2013-06-04 21:01:00,67.0,62.0,29.97,ESE,116,0.0,0.0,84,0.00,,,0.00,WeatherCatV1.15B25,2013-06-05 02:01:00,
2013-06-04 21:06:00,66.6,61.6,29.97,ESE,116,0.0,0.0,84,0.00,,,0.00,WeatherCatV1.15B25,2013-06-05 02:06:00,
2013-06-04 21:11:00,66.2,61.9,29.97,ESE,116,0.0,0.0,86,0.00,,,0.00,WeatherCatV1.15B25,2013-06-05 02:11:00,
2013-06-04 21:16:00,65.9,61.3,29.97,ESE,117,0.0,1.0,85,0.00,,,0.00,WeatherCatV1.15B25,2013-06-05 02:16:00,
2013-06-04 21:21:00,65.4,61.1,29.97,ESE,121,0.0,0.0,86,0.00,,,0.00,WeatherCatV1.15B25,2013-06-05 02:21:00,
2013-06-04 21:26:00,65.1,60.8,29.97,ESE,123,0.0,1.0,86,0.00,,,0.00,WeatherCatV1.15B25,2013-06-05 02:26:00,
2013-06-04 21:31:00,64.8,60.8,29.97,SSE,161,1.0,2.0,87,0.00,,,0.00,WeatherCatV1.15B25,2013-06-05 02:31:00,
2013-06-04 21:36:00,64.5,60.5,29.97,SSE,161,0.0,1.0,87,0.00,,,0.00,WeatherCatV1.15B25,2013-06-05 02:36:00,
2013-06-04 21:41:00,64.2,60.6,29.97,SSE,161,0.0,0.0,88,0.00,,,0.00,WeatherCatV1.15B25,2013-06-05 02:41:00,
2013-06-04 21:46:00,64.0,60.4,29.97,SSE,161,0.0,0.0,88,0.00,,,0.00,WeatherCatV1.15B25,2013-06-05 02:46:00,
2013-06-04 21:51:00,63.8,60.2,29.98,SSE,161,0.0,0.0,88,0.00,,,0.00,WeatherCatV1.15B25,2013-06-05 02:51:00,
2013-06-04 21:56:00,63.6,60.3,29.98,SSE,161,0.0,0.0,89,0.00,,,0.00,WeatherCatV1.15B25,2013-06-05 02:56:00,
2013-06-04 22:01:00,63.4,60.4,29.98,SSE,161,0.0,0.0,90,0.00,,,0.00,WeatherCatV1.15B25,2013-06-05 03:01:00,
2013-06-04 22:06:00,63.2,60.2,29.98,SSE,161,0.0,0.0,90,0.00,,,0.00,WeatherCatV1.15B25,2013-06-05 03:06:00,
2013-06-04 22:11:00,63.0,60.0,29.98,SSE,161,0.0,0.0,90,0.00,,,0.00,WeatherCatV1.15B25,2013-06-05 03:11:00,
2013-06-04 22:16:00,62.8,60.1,29.98,SSE,161,0.0,0.0,91,0.00,,,0.00,WeatherCatV1.15B25,2013-06-05 03:16:00,
2013-06-04 22:21:00,62.6,59.9,29.99,SSE,161,0.0,0.0,91,0.00,,,0.00,WeatherCatV1.15B25,2013-06-05 03:21:00,
2013-06-04 22:26:00,62.4,60.0,29.99,SSE,161,0.0,0.0,92,0.00,,,0.00,WeatherCatV1.15B25,2013-06-05 03:26:00,
2013-06-04 22:31:00,62.2,59.8,29.99,SSE,161,0.0,0.0,92,0.00,,,0.00,WeatherCatV1.15B25,2013-06-05 03:31:00,
2013-06-04 22:36:00,62.0,59.6,29.99,SSE,161,0.0,0.0,92,0.00,,,0.00,WeatherCatV1.15B25,2013-06-05 03:36:00,
2013-06-04 22:41:00,61.9,59.5,29.99,SSE,161,0.0,0.0,92,0.00,,,0.00,WeatherCatV1.15B25,2013-06-05 03:41:00,
2013-06-04 22:46:00,61.7,59.7,29.99,SSE,161,0.0,0.0,93,0.00,,,0.00,WeatherCatV1.15B25,2013-06-05 03:46:00,
2013-06-04 22:51:00,61.6,59.6,29.99,SSE,161,0.0,0.0,93,0.00,,,0.00,WeatherCatV1.15B25,2013-06-05 03:51:00,
2013-06-04 22:56:00,61.4,59.4,29.99,SSE,161,0.0,0.0,93,0.00,,,0.00,WeatherCatV1.15B25,2013-06-05 03:56:00,
2013-06-04 23:01:00,61.3,59.3,29.99,SSE,161,0.0,0.0,93,0.00,,,0.00,WeatherCatV1.15B25,2013-06-05 04:01:00,
2013-06-04 23:06:00,61.1,59.1,29.99,SSE,161,0.0,0.0,93,0.00,,,0.00,WeatherCatV1.15B25,2013-06-05 04:06:00,
2013-06-04 23:11:00,61.0,59.0,29.99,SSE,161,0.0,0.0,93,0.00,,,0.00,WeatherCatV1.15B25,2013-06-05 04:11:00,
2013-06-04 23:16:00,60.9,59.2,29.99,SSE,161,0.0,0.0,94,0.00,,,0.00,WeatherCatV1.15B25,2013-06-05 04:16:00,
2013-06-04 23:21:00,60.8,59.1,29.99,SSE,161,0.0,0.0,94,0.00,,,0.00,WeatherCatV1.15B25,2013-06-05 04:21:00,
2013-06-04 23:26:00,60.7,59.0,29.99,SSE,161,0.0,0.0,94,0.00,,,0.00,WeatherCatV1.15B25,2013-06-05 04:26:00,
2013-06-04 23:31:00,60.6,58.9,29.98,SSE,161,0.0,0.0,94,0.00,,,0.00,WeatherCatV1.15B25,2013-06-05 04:31:00,
2013-06-04 23:36:00,60.4,59.0,29.98,SSE,161,0.0,0.0,95,0.00,,,0.00,WeatherCatV1.15B25,2013-06-05 04:36:00,
2013-06-04 23:41:00,60.3,58.9,29.98,SSE,161,0.0,0.0,95,0.00,,,0.00,WeatherCatV1.15B25,2013-06-05 04:41:00,
2013-06-04 23:46:00,60.3,58.9,29.98,SSE,161,0.0,0.0,95,0.00,,,0.00,WeatherCatV1.15B25,2013-06-05 04:46:00,
2013-06-04 23:51:00,60.2,58.8,29.98,SSE,161,0.0,0.0,95,0.00,,,0.00,WeatherCatV1.15B25,2013-06-05 04:51:00,
2013-06-04 23:56:00,60.0,58.6,29.98,SSE,161,0.0,0.0,95,0.00,,,0.00,WeatherCatV1.15B25,2013-06-05 04:56:00,